| time (UTC) | temp F | wind direction | speed MPH | gust MPH | rain 1hr in | rain 24hr in | rain mn in | humidity % | barometer mb |
| 20260506123543 | 52 | 20 | 8.0 | 12.0 | 0.00 | 0.00 | 0.00 | 79 | 1013.7 |
| 20260506123040 | 50 | 22 | 6.0 | 7.0 | 0.00 | 0.00 | 0.00 | 79 | 1013.7 |
| 20260506122538 | 50 | 39 | 10.0 | 15.0 | 0.00 | 0.00 | 0.00 | 79 | 1013.7 |
| 20260506121533 | 52 | 38 | 7.0 | 7.0 | 0.00 | 0.00 | 0.00 | 81 | 1013.7 |
| 20260506121030 | 52 | 23 | 7.0 | 7.0 | 0.00 | 0.00 | 0.00 | 82 | 1013.7 |
| 20260506120528 | 52 | 22 | 2.0 | 3.0 | 0.00 | 0.00 | 0.00 | 83 | 1013.7 |
| 20260506120025 | 52 | 59 | 5.0 | 5.0 | 0.00 | 0.00 | 0.00 | 81 | 1013.4 |
| 20260506115523 | 52 | 66 | 4.0 | 6.0 | 0.00 | 0.00 | 0.00 | 79 | 1013.4 |
| 20260506115021 | 52 | 68 | 6.0 | 8.0 | 0.00 | 0.00 | 0.00 | 78 | 1013.4 |
| 20260506114519 | 52 | 61 | 4.0 | 4.0 | 0.00 | 0.00 | 0.00 | 78 | 1013.4 |
| 20260506114016 | 52 | 82 | 7.0 | 7.0 | 0.00 | 0.00 | 0.00 | 79 | 1013.4 |
| 20260506113514 | 52 | 348 | 6.0 | 6.0 | 0.00 | 0.00 | 0.00 | 78 | 1013.4 |
| 20260506113011 | 52 | 33 | 7.0 | 12.0 | 0.00 | 0.00 | 0.00 | 79 | 1013.4 |
| 20260506112509 | 52 | 14 | 5.0 | 7.0 | 0.00 | 0.00 | 0.00 | 81 | 1013.4 |
| 20260506112007 | 52 | 33 | 8.0 | 8.0 | 0.00 | 0.00 | 0.00 | 81 | 1013.4 |
| 20260506111504 | 52 | 47 | 4.0 | 5.0 | 0.00 | 0.00 | 0.00 | 81 | 1013.4 |
| 20260506111001 | 52 | 38 | 5.0 | 6.0 | 0.00 | 0.00 | 0.00 | 80 | 1013.4 |
| 20260506105956 | 52 | 47 | 6.0 | 9.0 | 0.00 | 0.00 | 0.00 | 78 | 1013.4 |
| 20260506104952 | 52 | 333 | 8.0 | 12.0 | 0.00 | 0.00 | 0.00 | 79 | 1013.4 |
| 20260506104449 | 52 | 30 | 9.0 | 9.0 | 0.00 | 0.00 | 0.00 | 78 | 1013.4 |
| 20260506103947 | 52 | 11 | 2.0 | 6.0 | 0.00 | 0.00 | 0.00 | 80 | 1013.4 |
| 20260506103445 | 52 | 66 | 6.0 | 10.0 | 0.00 | 0.00 | 0.00 | 80 | 1013.4 |
| 20260506102440 | 50 | 23 | 11.0 | 15.0 | 0.00 | 0.00 | 0.00 | 80 | 1013.4 |
| 20260506101938 | 50 | 64 | 11.0 | 11.0 | 0.00 | 0.00 | 0.00 | 80 | 1013.4 |
| 20260506101435 | 50 | 19 | 7.0 | 10.0 | 0.00 | 0.00 | 0.00 | 79 | 1013.4 |
| 20260506100932 | 52 | 30 | 4.0 | 6.0 | 0.00 | 0.00 | 0.00 | 80 | 1013.4 |
| 20260506100430 | 50 | 23 | 4.0 | 7.0 | 0.00 | 0.00 | 0.00 | 81 | 1013.4 |
| 20260506095927 | 50 | 27 | 7.0 | 7.0 | 0.00 | 0.00 | 0.00 | 81 | 1013.4 |
| 20260506095425 | 50 | 1 | 11.0 | 11.0 | 0.00 | 0.00 | 0.00 | 80 | 1013.4 |
| 20260506094922 | 50 | 42 | 6.0 | 9.0 | 0.00 | 0.00 | 0.00 | 80 | 1013.4 |
| 20260506094420 | 50 | 345 | 9.0 | 11.0 | 0.00 | 0.00 | 0.00 | 80 | 1013.4 |
| 20260506093415 | 52 | 22 | 4.0 | 6.0 | 0.00 | 0.00 | 0.00 | 80 | 1013.0 |
| 20260506092913 | 52 | 66 | 6.0 | 11.0 | 0.00 | 0.00 | 0.00 | 79 | 1013.0 |
| 20260506092410 | 52 | 17 | 5.0 | 7.0 | 0.00 | 0.00 | 0.00 | 79 | 1013.0 |
| 20260506091908 | 50 | 18 | 12.0 | 14.0 | 0.00 | 0.00 | 0.00 | 78 | 1013.0 |
| 20260506091405 | 52 | 31 | 12.0 | 16.0 | 0.00 | 0.00 | 0.00 | 78 | 1013.0 |
| 20260506090904 | 52 | 5 | 3.0 | 6.0 | 0.00 | 0.00 | 0.00 | 78 | 1013.0 |
| 20260506090401 | 52 | 304 | 2.0 | 10.0 | 0.00 | 0.00 | 0.00 | 78 | 1013.0 |
| 20260506085859 | 52 | 47 | 4.0 | 4.0 | 0.00 | 0.00 | 0.00 | 79 | 1012.7 |
| 20260506084853 | 50 | 15 | 6.0 | 9.0 | 0.00 | 0.00 | 0.00 | 79 | 1013.0 |
| 20260506083848 | 50 | 22 | 4.0 | 7.0 | 0.00 | 0.00 | 0.00 | 80 | 1012.7 |
| 20260506083346 | 50 | 80 | 6.0 | 13.0 | 0.00 | 0.00 | 0.00 | 79 | 1012.7 |
| 20260506082844 | 50 | 19 | 5.0 | 8.0 | 0.00 | 0.00 | 0.00 | 79 | 1012.7 |
| 20260506082341 | 50 | 22 | 9.0 | 11.0 | 0.00 | 0.00 | 0.00 | 80 | 1012.7 |
| 20260506081839 | 50 | 8 | 8.0 | 11.0 | 0.00 | 0.00 | 0.00 | 80 | 1012.7 |
| 20260506080834 | 50 | 51 | 6.0 | 11.0 | 0.00 | 0.00 | 0.00 | 79 | 1012.7 |
| 20260506080331 | 50 | 21 | 8.0 | 8.0 | 0.00 | 0.00 | 0.00 | 79 | 1012.3 |
| 20260506073317 | 50 | 32 | 9.0 | 11.0 | 0.00 | 0.00 | 0.00 | 79 | 1012.3 |
| 20260506072313 | 50 | 33 | 3.0 | 6.0 | 0.00 | 0.00 | 0.00 | 81 | 1012.3 |
| 20260506071810 | 50 | 23 | 6.0 | 12.0 | 0.00 | 0.00 | 0.00 | 82 | 1012.3 |
| 20260506071307 | 50 | 2 | 3.0 | 5.0 | 0.00 | 0.00 | 0.00 | 82 | 1012.3 |
| 20260506070805 | 50 | 6 | 15.0 | 15.0 | 0.00 | 0.00 | 0.00 | 82 | 1012.3 |
| 20260506070302 | 50 | 19 | 11.0 | 11.0 | 0.00 | 0.00 | 0.00 | 81 | 1012.3 |
| 20260506062243 | 50 | 11 | 9.0 | 9.0 | 0.00 | 0.00 | 0.00 | 80 | 1012.0 |
| 20260506061741 | 50 | 56 | 7.0 | 9.0 | 0.00 | 0.00 | 0.00 | 81 | 1012.0 |
| 20260506061239 | 50 | 3 | 7.0 | 7.0 | 0.00 | 0.00 | 0.00 | 81 | 1012.0 |
| 20260506060736 | 50 | 29 | 6.0 | 9.0 | 0.00 | 0.00 | 0.00 | 81 | 1012.0 |
| 20260506060233 | 50 | 355 | 6.0 | 7.0 | 0.00 | 0.00 | 0.00 | 81 | 1012.0 |
| 20260506051209 | 48 | 19 | 7.0 | 9.0 | 0.00 | 0.00 | 0.00 | 82 | 1012.0 |
| 20260506050706 | 48 | 9 | 2.0 | 6.0 | 0.00 | 0.00 | 0.00 | 83 | 1012.0 |
| 20260506050204 | 48 | 43 | 4.0 | 6.0 | 0.00 | 0.00 | 0.00 | 83 | 1012.0 |
| 20260506044656 | 48 | 0 | 5.0 | 6.0 | 0.00 | 0.00 | 0.00 | 84 | 1012.3 |
| 20260506044154 | 48 | 9 | 2.0 | 3.0 | 0.00 | 0.00 | 0.00 | 84 | 1012.3 |
| 20260506043651 | 48 | 45 | 4.0 | 6.0 | 0.00 | 0.00 | 0.00 | 83 | 1012.3 |
| 20260506043148 | 48 | 62 | 6.0 | 7.0 | 0.00 | 0.00 | 0.00 | 83 | 1012.3 |
| 20260506042647 | 48 | 35 | 6.0 | 7.0 | 0.00 | 0.00 | 0.00 | 82 | 1012.3 |
| 20260506042144 | 48 | 0 | 4.0 | 7.0 | 0.00 | 0.00 | 0.00 | 82 | 1012.3 |
| 20260506041642 | 48 | 49 | 4.0 | 4.0 | 0.00 | 0.00 | 0.00 | 81 | 1012.3 |
| 20260506041139 | 48 | 52 | 4.0 | 6.0 | 0.00 | 0.00 | 0.00 | 81 | 1012.3 |
| 20260506040135 | 48 | 123 | 9.0 | 9.0 | 0.00 | 0.00 | 0.00 | 80 | 1012.3 |
| 20260506035632 | 48 | 8 | 9.0 | 9.0 | 0.00 | 0.00 | 0.00 | 81 | 1012.3 |
| 20260506035130 | 48 | 18 | 10.0 | 11.0 | 0.00 | 0.00 | 0.00 | 81 | 1012.3 |
| 20260506034627 | 50 | 74 | 2.0 | 6.0 | 0.00 | 0.00 | 0.00 | 82 | 1012.3 |
| 20260506034125 | 50 | 90 | 7.0 | 7.0 | 0.00 | 0.00 | 0.00 | 81 | 1012.3 |
| 20260506033622 | 50 | 45 | 6.0 | 9.0 | 0.00 | 0.00 | 0.00 | 81 | 1012.3 |
| 20260506033120 | 50 | 26 | 6.0 | 6.0 | 0.00 | 0.00 | 0.00 | 81 | 1012.3 |
| 20260506032617 | 50 | 10 | 3.0 | 4.0 | 0.00 | 0.00 | 0.00 | 80 | 1012.3 |
| 20260506031612 | 50 | 12 | 6.0 | 6.0 | 0.00 | 0.00 | 0.00 | 79 | 1012.3 |
| 20260506031110 | 50 | 35 | 4.0 | 9.0 | 0.00 | 0.00 | 0.00 | 78 | 1012.3 |
| 20260506030608 | 50 | 25 | 9.0 | 9.0 | 0.00 | 0.00 | 0.00 | 78 | 1012.3 |
| 20260506030105 | 50 | 14 | 7.0 | 7.0 | 0.00 | 0.00 | 0.00 | 78 | 1012.3 |
| 20260506025603 | 50 | 358 | 11.0 | 13.0 | 0.00 | 0.00 | 0.00 | 78 | 1012.3 |
| 20260506025100 | 50 | 68 | 9.0 | 9.0 | 0.00 | 0.00 | 0.00 | 79 | 1012.3 |
| 20260506024558 | 50 | 50 | 6.0 | 9.0 | 0.00 | 0.00 | 0.00 | 80 | 1012.3 |
| 20260506024055 | 50 | 332 | 6.0 | 7.0 | 0.00 | 0.00 | 0.00 | 80 | 1012.3 |
| 20260506023553 | 50 | 27 | 6.0 | 7.0 | 0.00 | 0.00 | 0.00 | 81 | 1012.3 |
| 20260506023050 | 50 | 67 | 4.0 | 6.0 | 0.00 | 0.00 | 0.00 | 82 | 1012.3 |
| 20260506022548 | 50 | 350 | 6.0 | 8.0 | 0.00 | 0.00 | 0.00 | 82 | 1012.3 |
| 20260506022046 | 50 | 40 | 6.0 | 9.0 | 0.00 | 0.00 | 0.00 | 82 | 1012.3 |
| 20260506021543 | 50 | 26 | 6.0 | 7.0 | 0.00 | 0.00 | 0.00 | 81 | 1012.3 |
| 20260506021042 | 50 | 26 | 4.0 | 9.0 | 0.00 | 0.00 | 0.00 | 82 | 1012.3 |
| 20260506020540 | 50 | 50 | 7.0 | 7.0 | 0.00 | 0.00 | 0.00 | 82 | 1012.3 |
| 20260506015033 | 50 | 26 | 8.0 | 12.0 | 0.00 | 0.00 | 0.00 | 83 | 1012.3 |
| 20260506014531 | 50 | 52 | 3.0 | 5.0 | 0.00 | 0.00 | 0.00 | 83 | 1012.3 |
| 20260506014028 | 50 | 58 | 6.0 | 7.0 | 0.00 | 0.00 | 0.00 | 83 | 1012.3 |
| 20260506013526 | 50 | 29 | 6.0 | 7.0 | 0.00 | 0.00 | 0.00 | 83 | 1012.3 |
| 20260506013023 | 50 | 69 | 3.0 | 6.0 | 0.00 | 0.00 | 0.00 | 83 | 1012.3 |
| 20260506012520 | 50 | 9 | 7.0 | 12.0 | 0.00 | 0.00 | 0.00 | 83 | 1012.7 |
| 20260506012018 | 50 | 36 | 9.0 | 9.0 | 0.00 | 0.00 | 0.00 | 84 | 1012.7 |
| 20260506011515 | 50 | 8 | 5.0 | 5.0 | 0.00 | 0.00 | 0.00 | 84 | 1012.7 |
| 20260506011013 | 50 | 14 | 2.0 | 4.0 | 0.00 | 0.00 | 0.00 | 85 | 1012.7 |
| 20260506010511 | 50 | 15 | 5.0 | 5.0 | 0.00 | 0.00 | 0.00 | 85 | 1012.7 |
| 20260506005506 | 50 | 8 | 4.0 | 8.0 | 0.00 | 0.00 | 0.00 | 85 | 1012.7 |
| 20260506005003 | 50 | 1 | 7.0 | 7.0 | 0.00 | 0.00 | 0.00 | 85 | 1012.7 |
| 20260506004501 | 50 | 16 | 7.0 | 9.0 | 0.00 | 0.00 | 0.00 | 85 | 1012.7 |
| 20260506003959 | 50 | 355 | 2.0 | 3.0 | 0.00 | 0.00 | 0.00 | 85 | 1012.7 |
| 20260506003456 | 50 | 31 | 3.0 | 6.0 | 0.00 | 0.00 | 0.00 | 85 | 1012.7 |
| 20260506002954 | 50 | 14 | 4.0 | 7.0 | 0.00 | 0.00 | 0.00 | 85 | 1012.7 |
| 20260506002451 | 48 | 42 | 7.0 | 7.0 | 0.00 | 0.00 | 0.00 | 86 | 1012.7 |
| 20260506001949 | 50 | 23 | 3.0 | 6.0 | 0.00 | 0.00 | 0.00 | 85 | 1012.7 |
| 20260506001447 | 50 | 34 | 7.0 | 7.0 | 0.00 | 0.00 | 0.00 | 85 | 1012.7 |
| 20260506000944 | 50 | 40 | 5.0 | 6.0 | 0.00 | 0.00 | 0.00 | 85 | 1012.7 |
| 20260506000442 | 50 | 31 | 3.0 | 4.0 | 0.00 | 0.00 | 0.00 | 85 | 1012.7 |
| 20260505235940 | 50 | 8 | 6.0 | 6.0 | 0.00 | 0.00 | 0.00 | 85 | 1012.7 |
| 20260505235437 | 50 | 45 | 2.0 | 3.0 | 0.00 | 0.00 | 0.00 | 85 | 1012.7 |
| 20260505234934 | 50 | 63 | 4.0 | 6.0 | 0.00 | 0.00 | 0.00 | 85 | 1012.7 |
| 20260505234432 | 50 | 66 | 6.0 | 8.0 | 0.00 | 0.00 | 0.00 | 84 | 1012.7 |
| 20260505233930 | 50 | 33 | 6.0 | 8.0 | 0.00 | 0.00 | 0.00 | 84 | 1012.7 |
| 20260505233428 | 50 | 29 | 7.0 | 7.0 | 0.00 | 0.00 | 0.00 | 84 | 1012.7 |
| 20260505232925 | 50 | 52 | 3.0 | 6.0 | 0.00 | 0.00 | 0.00 | 84 | 1012.7 |
| 20260505232423 | 50 | 52 | 5.0 | 9.0 | 0.00 | 0.00 | 0.00 | 84 | 1012.7 |
| 20260505231920 | 50 | 37 | 3.0 | 5.0 | 0.00 | 0.00 | 0.00 | 84 | 1012.7 |
| 20260505230915 | 50 | 66 | 3.0 | 5.0 | 0.00 | 0.00 | 0.00 | 83 | 1012.7 |
| 20260505230413 | 50 | 49 | 4.0 | 7.0 | 0.00 | 0.00 | 0.00 | 82 | 1012.7 |
| 20260505225910 | 50 | 29 | 8.0 | 9.0 | 0.00 | 0.00 | 0.00 | 82 | 1012.7 |
| 20260505225408 | 50 | 38 | 4.0 | 5.0 | 0.00 | 0.00 | 0.00 | 82 | 1012.7 |
| 20260505224906 | 50 | 5 | 4.0 | 7.0 | 0.00 | 0.00 | 0.00 | 82 | 1012.7 |
| 20260505224404 | 50 | 5 | 6.0 | 7.0 | 0.00 | 0.00 | 0.00 | 81 | 1012.7 |
| 20260505223902 | 50 | 15 | 4.0 | 6.0 | 0.00 | 0.00 | 0.00 | 81 | 1012.7 |
| 20260505223359 | 50 | 28 | 7.0 | 7.0 | 0.00 | 0.00 | 0.00 | 81 | 1012.7 |
| 20260505222857 | 50 | 58 | 4.0 | 9.0 | 0.00 | 0.00 | 0.00 | 81 | 1012.7 |
| 20260505222354 | 50 | 60 | 7.0 | 11.0 | 0.00 | 0.00 | 0.00 | 81 | 1012.7 |
| 20260505221852 | 50 | 29 | 7.0 | 11.0 | 0.00 | 0.00 | 0.00 | 81 | 1012.7 |
| 20260505221350 | 50 | 73 | 4.0 | 6.0 | 0.00 | 0.00 | 0.00 | 81 | 1012.7 |
| 20260505220847 | 50 | 42 | 6.0 | 15.0 | 0.00 | 0.00 | 0.00 | 81 | 1012.7 |
| 20260505220344 | 50 | 93 | 6.0 | 9.0 | 0.00 | 0.00 | 0.00 | 81 | 1012.7 |
| 20260505215842 | 50 | 82 | 5.0 | 6.0 | 0.00 | 0.00 | 0.00 | 81 | 1012.7 |
| 20260505215340 | 50 | 18 | 12.0 | 14.0 | 0.00 | 0.00 | 0.00 | 81 | 1012.7 |
| 20260505214837 | 50 | 64 | 9.0 | 14.0 | 0.00 | 0.00 | 0.00 | 80 | 1012.7 |
| 20260505214335 | 50 | 20 | 8.0 | 9.0 | 0.00 | 0.00 | 0.00 | 80 | 1012.7 |
| 20260505213833 | 50 | 354 | 6.0 | 10.0 | 0.00 | 0.00 | 0.00 | 80 | 1012.7 |
| 20260505212828 | 50 | 51 | 10.0 | 12.0 | 0.00 | 0.00 | 0.00 | 80 | 1012.7 |
| 20260505212325 | 50 | 14 | 6.0 | 7.0 | 0.00 | 0.00 | 0.00 | 80 | 1012.7 |
| 20260505211320 | 50 | 37 | 7.0 | 9.0 | 0.00 | 0.00 | 0.00 | 81 | 1012.7 |
| 20260505210818 | 50 | 38 | 9.0 | 9.0 | 0.00 | 0.00 | 0.00 | 80 | 1012.7 |
| 20260505210316 | 50 | 51 | 7.0 | 8.0 | 0.00 | 0.00 | 0.00 | 80 | 1012.7 |
| 20260505205814 | 50 | 38 | 4.0 | 6.0 | 0.00 | 0.00 | 0.00 | 81 | 1012.7 |
| 20260505205311 | 50 | 46 | 5.0 | 12.0 | 0.00 | 0.00 | 0.00 | 80 | 1012.7 |
| 20260505204809 | 50 | 0 | 9.0 | 11.0 | 0.00 | 0.00 | 0.00 | 80 | 1012.7 |
| 20260505204307 | 50 | 30 | 9.0 | 11.0 | 0.00 | 0.00 | 0.00 | 80 | 1012.7 |
| 20260505203804 | 50 | 28 | 9.0 | 9.0 | 0.00 | 0.00 | 0.00 | 80 | 1012.7 |
| 20260505203302 | 50 | 38 | 5.0 | 6.0 | 0.00 | 0.00 | 0.00 | 80 | 1012.7 |
| 20260505202759 | 50 | 19 | 9.0 | 10.0 | 0.00 | 0.00 | 0.00 | 79 | 1012.7 |
| 20260505202258 | 50 | 31 | 8.0 | 8.0 | 0.00 | 0.00 | 0.00 | 79 | 1012.7 |
| 20260505201755 | 50 | 45 | 7.0 | 14.0 | 0.00 | 0.00 | 0.00 | 79 | 1012.7 |
| 20260505201253 | 50 | 29 | 7.0 | 11.0 | 0.00 | 0.00 | 0.00 | 79 | 1012.3 |
| 20260505200751 | 50 | 72 | 9.0 | 13.0 | 0.00 | 0.00 | 0.00 | 78 | 1012.3 |
| 20260505200248 | 50 | 77 | 6.0 | 9.0 | 0.00 | 0.00 | 0.00 | 78 | 1012.3 |
| 20260505195746 | 50 | 25 | 6.0 | 9.0 | 0.00 | 0.00 | 0.00 | 78 | 1012.3 |
| 20260505195243 | 50 | 20 | 9.0 | 11.0 | 0.00 | 0.00 | 0.00 | 77 | 1012.3 |
| 20260505194741 | 50 | 25 | 6.0 | 7.0 | 0.00 | 0.00 | 0.00 | 76 | 1012.3 |
| 20260505194238 | 50 | 300 | 8.0 | 9.0 | 0.00 | 0.00 | 0.00 | 75 | 1012.3 |
| 20260505193736 | 50 | 44 | 4.0 | 7.0 | 0.00 | 0.00 | 0.00 | 75 | 1012.3 |
| 20260505193234 | 52 | 55 | 9.0 | 9.0 | 0.00 | 0.00 | 0.00 | 75 | 1012.0 |
| 20260505192731 | 52 | 35 | 12.0 | 12.0 | 0.00 | 0.00 | 0.00 | 74 | 1012.0 |
| 20260505192229 | 52 | 53 | 8.0 | 9.0 | 0.00 | 0.00 | 0.00 | 74 | 1012.0 |
| 20260505191726 | 52 | 84 | 9.0 | 15.0 | 0.00 | 0.00 | 0.00 | 74 | 1012.0 |
| 20260505191224 | 52 | 73 | 6.0 | 7.0 | 0.00 | 0.00 | 0.00 | 73 | 1012.0 |
| 20260505190722 | 52 | 77 | 7.0 | 14.0 | 0.00 | 0.00 | 0.00 | 73 | 1012.0 |
| 20260505190219 | 52 | 56 | 7.0 | 12.0 | 0.00 | 0.00 | 0.00 | 73 | 1012.0 |
| 20260505185214 | 52 | 31 | 6.0 | 11.0 | 0.00 | 0.00 | 0.00 | 72 | 1012.0 |
| 20260505184209 | 52 | 42 | 7.0 | 7.0 | 0.00 | 0.00 | 0.00 | 71 | 1011.7 |
| 20260505183706 | 52 | 31 | 10.0 | 10.0 | 0.00 | 0.00 | 0.00 | 70 | 1011.7 |
| 20260505183204 | 52 | 48 | 9.0 | 13.0 | 0.00 | 0.00 | 0.00 | 70 | 1011.7 |
| 20260505182701 | 54 | 11 | 9.0 | 12.0 | 0.00 | 0.00 | 0.00 | 70 | 1011.7 |
| 20260505182158 | 54 | 30 | 8.0 | 23.0 | 0.00 | 0.00 | 0.00 | 69 | 1011.7 |
| 20260505181656 | 54 | 72 | 11.0 | 17.0 | 0.00 | 0.00 | 0.00 | 69 | 1011.7 |
| 20260505181154 | 54 | 90 | 9.0 | 12.0 | 0.00 | 0.00 | 0.00 | 69 | 1011.7 |
| 20260505180652 | 54 | 72 | 9.0 | 17.0 | 0.00 | 0.00 | 0.00 | 69 | 1011.7 |
| 20260505180149 | 54 | 33 | 14.0 | 23.0 | 0.00 | 0.00 | 0.00 | 68 | 1011.7 |
| 20260505175647 | 54 | 29 | 9.0 | 12.0 | 0.00 | 0.00 | 0.00 | 70 | 1012.0 |
| 20260505175144 | 54 | 29 | 11.0 | 15.0 | 0.00 | 0.00 | 0.00 | 69 | 1011.7 |
| 20260505174140 | 55 | 43 | 9.0 | 10.0 | 0.00 | 0.00 | 0.00 | 69 | 1011.7 |
| 20260505173637 | 55 | 52 | 7.0 | 13.0 | 0.00 | 0.00 | 0.00 | 69 | 1011.7 |
| 20260505173135 | 55 | 57 | 7.0 | 7.0 | 0.00 | 0.00 | 0.00 | 70 | 1011.7 |
| 20260505172130 | 55 | 37 | 8.0 | 12.0 | 0.00 | 0.00 | 0.00 | 68 | 1011.7 |
| 20260505171627 | 55 | 64 | 9.0 | 12.0 | 0.00 | 0.00 | 0.00 | 68 | 1011.7 |
| 20260505171125 | 55 | 36 | 6.0 | 11.0 | 0.00 | 0.00 | 0.00 | 67 | 1011.7 |
| 20260505170623 | 55 | 6 | 11.0 | 12.0 | 0.00 | 0.00 | 0.00 | 66 | 1011.7 |
| 20260505170121 | 55 | 11 | 9.0 | 12.0 | 0.00 | 0.00 | 0.00 | 64 | 1011.7 |
| 20260505165618 | 55 | 36 | 9.0 | 14.0 | 0.00 | 0.00 | 0.00 | 64 | 1011.7 |
| 20260505164613 | 55 | 65 | 12.0 | 13.0 | 0.00 | 0.00 | 0.00 | 63 | 1011.7 |
| 20260505164111 | 55 | 44 | 11.0 | 15.0 | 0.00 | 0.00 | 0.00 | 62 | 1011.7 |
| 20260505163609 | 55 | 21 | 8.0 | 10.0 | 0.00 | 0.00 | 0.00 | 63 | 1011.7 |
| 20260505163107 | 55 | 72 | 10.0 | 10.0 | 0.00 | 0.00 | 0.00 | 64 | 1011.7 |
| 20260505162604 | 55 | 49 | 14.0 | 14.0 | 0.00 | 0.00 | 0.00 | 62 | 1011.7 |
| 20260505162102 | 55 | 39 | 14.0 | 19.0 | 0.00 | 0.00 | 0.00 | 63 | 1011.7 |
| 20260505161057 | 55 | 97 | 9.0 | 15.0 | 0.00 | 0.00 | 0.00 | 65 | 1011.7 |
| 20260505160555 | 55 | 45 | 7.0 | 12.0 | 0.00 | 0.00 | 0.00 | 66 | 1011.7 |
| 20260505153039 | 55 | 52 | 12.0 | 12.0 | 0.00 | 0.00 | 0.00 | 67 | 1011.7 |
| 20260505152537 | 55 | 66 | 14.0 | 17.0 | 0.00 | 0.00 | 0.00 | 65 | 1011.7 |
| 20260505152034 | 55 | 0 | 14.0 | 17.0 | 0.00 | 0.00 | 0.00 | 65 | 1011.7 |
| 20260505151531 | 55 | 67 | 8.0 | 17.0 | 0.00 | 0.00 | 0.00 | 64 | 1011.7 |
| 20260505151029 | 55 | 67 | 13.0 | 17.0 | 0.00 | 0.00 | 0.00 | 64 | 1011.7 |
| 20260505150527 | 55 | 41 | 12.0 | 19.0 | 0.00 | 0.00 | 0.00 | 66 | 1011.7 |
| 20260505140458 | 59 | 33 | 8.0 | 11.0 | 0.00 | 0.00 | 0.00 | 57 | 1012.0 |
| 20260505124922 | 59 | 35 | 7.0 | 7.0 | 0.00 | 0.00 | 0.00 | 62 | 1012.3 |
| 20260505124419 | 59 | 25 | 11.0 | 17.0 | 0.00 | 0.00 | 0.00 | 60 | 1012.3 |